World > North America > United States > Kentucky

Pikeville, Kentucky Regional Weather

Lat: 37.48N, Lon: 82.51W
Wx Zone: KYZ120Web Search
Pikeville Weather Warning NWS WEATHER ALERT FOR THE PIKEVILLE, KY AREA - Issued: 437 PM EST Tue Mar 2 2021 Pikeville Weather Warning  

Helpful Tip: Type the letters wx in the search engine next time you need to find us.

Feedback
Pikeville Weather Map
UTC Time: 3/2/2021, 23:29
Your Time:

Pikeville, KY Regional Weather

Expires:202103030000;;380475
ASUS43 KLMK 022310
RWRKY 
KENTUCKY REGIONAL WEATHER ROUNDUP
NATIONAL WEATHER SERVICE LOUISVILLE KY
600 PM EST TUE MAR 02 2021

NOTE "FAIR" INDICATES FEW OR NO CLOUDS BELOW 12,000 FEET
WITH NO SIGNIFICANT WEATHER AND/OR OBSTRUCTIONS TO VISIBILITY.


KYZ054-064>069-076>088-106>120-030000-
SOUTHEAST KENTUCKY
  
CITY           SKY/WX    TMP DP  RH WIND       PRES   REMARKS
JACKSON        CLEAR     47  10  22 CALM      30.12F                  
LONDON         PTCLDY    47  17  30 N3        30.12F                  
SOMERSET       PTCLDY    46  12  25 CALM      30.15R                  
MIDDLESBORO    PTCLDY    49  21  32 S5        30.13S                  
MONTICELLO     PTCLDY    46  24  42 N15       30.15R                  
$$

  

SKY/WX - Weather  TMP - Temperature  DP - Dew Point  RH - Relative Humidity
WIND - Wind Direction/Speed PRES - Barometric Pressure VSB - Visibility
WCI - Wind Chill Index E13G22 Wind - East Wind 13 mph/Gusts of 22 mph